Retour au catalogue

IRIDIUM 36

ActifCommunicationsPO
NORAD 24967·PAYLOAD·🇺🇸 United States

Lancé Sep 27, 1997 depuis Vandenberg Space Force Base

Loading…

Prochains Passages (prochaines 24 heures)

TLE

FraisSource: Space-Track

Époque: Sep 14, 2026, 05:55 UTC

1 24967U 97056C   26257.24686773  .00000264  00000-0  80854-4 0  9991
2 24967  86.4018 342.1008 0002184  86.0268 274.1179 14.37989113517460

Suivez IRIDIUM 36 en temps réel avec AllMySat

Download on the App Store